Flag for Canada Weather past 2 weeks in Ottawa, Ontario, Canada

Now
81 °F

Partly sunny.


Feels Like: 83 °F
Forecast: 62 / 85 °F
Wind: 16 mph from Southwest

Location: Ottawa Int'L. Ont.

Current Time: May 26, 2015 at 12:42:04 PM

Latest Report: May 26, 2015 at 12:00 PM


Visibility: 15 mi

Pressure: 30.01 "Hg

Humidity: 62%

Dew point: 66 °F

Location of OttawaLocation

Historic Weather in Ottawa — Graph

°F

Ottawa temperature yesterday

Maximum temperature yesterday: 66 °F (at 9:00 AM)
Minimum temperature yesterday: 61 °F (at 3:00 AM)
Average temperature yesterday: 61 °F

Past Weeks' High & Low Weather Summary

 TemperatureHumidityPressure
High84 °F (May 18, 4:00 PM)100% (May 11, 12:00 PM)30.45 "Hg (May 11, 12:00 PM)
Low28 °F (May 23, 5:00 AM)22% (May 14, 3:00 PM)29.62 "Hg (May 12, 2:00 PM)
Average58 °F63%30.03 "Hg
* Reported May 11 11:00 AM — May 26 11:00 AM, Ottawa, Weather by CustomWeather, © 2015

Note: Actual official high and low records may vary slightly from our data, if they occured in-between our weather recording intervals... More about our weather records

Advertising

Ottawa weather history for previous 24 hours

 ConditionsComfort  
Time TempWeatherWind HumidityBarometerVisibility
11:00 AM
Tue, May 26
79 °FScattered clouds.14 mph65%30.01 "Hg15 mi
10:00 AM75 °FScattered clouds.16 mph74%30.00 "Hg15 mi
9:00 AM72 °FPassing clouds.14 mph83%30.01 "Hg15 mi
8:00 AM70 °FPassing clouds.14 mph83%30.00 "Hg15 mi
7:00 AM66 °FBroken clouds.13 mph88%29.97 "Hg15 mi
6:00 AM64 °FPartly cloudy.10 mph94%29.95 "Hg10 mi
5:00 AM64 °FPassing clouds.5 mph94%29.94 "Hg10 mi
4:00 AM64 °FPassing clouds.7 mph94%29.92 "Hg15 mi
3:00 AM63 °FPartly cloudy.6 mph100%29.92 "Hg10 mi
2:00 AM61 °FFog.6 mph100%29.92 "Hg6 mi
1:00 AM59 °FFog.5 mph100%29.92 "Hg1 mi
12:46 AM59 °FFog.6 mph100%29.92 "Hg1 mi
12:00 AM61 °FFog.5 mph100%29.93 "Hg2 mi
11:00 PM
Mon, May 25
61 °FLight rain. Fog.2 mph100%29.96 "Hg1 mi
10:46 PM61 °FLight rain. Fog.3 mph100%29.96 "Hg2 mi
10:00 PM61 °FFog.9 mph100%29.96 "Hg3 mi
9:00 PM61 °FLight rain. Fog.8 mph100%29.97 "Hg6 mi
8:00 PM61 °FLight rain. Fog.12 mph100%29.99 "Hg6 mi
7:00 PM61 °FLight rain. Fog.10 mph100%30.01 "Hg4 mi
6:00 PM61 °FLight rain. Fog.12 mph100%30.03 "Hg4 mi
5:00 PM61 °FLight rain. Fog.7 mph100%30.04 "Hg4 mi
4:00 PM61 °FLight rain. Fog.7 mph100%30.06 "Hg4 mi
3:00 PM61 °FLight rain. Fog.2 mph100%30.09 "Hg6 mi
2:00 PM61 °FLight rain. Fog.5 mph100%30.09 "Hg6 mi
1:00 PM61 °FLight rain. Fog.6 mph94%30.10 "Hg6 mi
12:00 PM61 °FLight rain. More clouds than sun.8 mph94%30.13 "Hg8 mi
Weather by CustomWeather, © 2015

See weather overviewHow to use our weather pages